| time (UTC) | temp F | wind direction | speed MPH | gust MPH | rain 1hr in | rain 24hr in | rain mn in | humidity % | barometer mb |
| 20260506044418 | 72 | 334 | 0.0 | 6.0 | 0.00 | 0.00 | 0.00 | 48 | 1028.7 |
| 20260506043914 | 72 | 40 | 2.0 | 4.0 | 0.00 | 0.00 | 0.00 | 48 | 1028.6 |
| 20260506043412 | 72 | 29 | 2.0 | 5.0 | 0.00 | 0.00 | 0.00 | 48 | 1028.7 |
| 20260506042910 | 71 | 345 | 2.0 | 3.0 | 0.00 | 0.00 | 0.00 | 48 | 1028.9 |
| 20260506042409 | 72 | 14 | 3.0 | 3.0 | 0.00 | 0.00 | 0.00 | 48 | 1029.0 |
| 20260506041907 | 72 | 354 | 3.0 | 5.0 | 0.00 | 0.00 | 0.00 | 47 | 1028.4 |
| 20260506041404 | 72 | 10 | 3.0 | 4.0 | 0.00 | 0.00 | 0.00 | 47 | 1029.0 |
| 20260506040901 | 72 | 37 | 5.0 | 5.0 | 0.00 | 0.00 | 0.00 | 46 | 1029.4 |
| 20260506040358 | 73 | 270 | 0.0 | 6.0 | 0.00 | 0.00 | 0.00 | 46 | 1028.8 |
| 20260506035854 | 72 | 120 | 3.0 | 5.0 | 0.00 | 0.00 | 0.00 | 46 | 1028.8 |
| 20260506035352 | 73 | 75 | 0.0 | 4.0 | 0.00 | 0.00 | 0.00 | 46 | 1028.8 |
| 20260506034849 | 72 | 281 | 2.0 | 4.0 | 0.00 | 0.00 | 0.00 | 45 | 1028.9 |
| 20260506034346 | 72 | 37 | 5.0 | 10.0 | 0.00 | 0.00 | 0.00 | 46 | 1029.0 |
| 20260506033842 | 72 | 357 | 3.0 | 4.0 | 0.00 | 0.00 | 0.00 | 46 | 1028.9 |
| 20260506033339 | 72 | 53 | 0.0 | 10.0 | 0.00 | 0.00 | 0.00 | 46 | 1029.0 |
| 20260506032837 | 72 | 11 | 2.0 | 5.0 | 0.00 | 0.00 | 0.00 | 46 | 1029.3 |
| 20260506032333 | 72 | 355 | 3.0 | 6.0 | 0.00 | 0.00 | 0.00 | 45 | 1029.2 |
| 20260506031830 | 72 | 31 | 3.0 | 4.0 | 0.00 | 0.00 | 0.00 | 45 | 1029.1 |
| 20260506031328 | 71 | 69 | 0.0 | 2.0 | 0.00 | 0.00 | 0.00 | 45 | 1029.2 |
| 20260506030825 | 71 | 154 | 0.0 | 1.0 | 0.00 | 0.00 | 0.00 | 45 | 1029.1 |
| 20260506030323 | 72 | 126 | 1.0 | 2.0 | 0.00 | 0.00 | 0.00 | 45 | 1029.2 |
| 20260506025820 | 72 | 349 | 0.0 | 4.0 | 0.00 | 0.00 | 0.00 | 45 | 1029.1 |
| 20260506025316 | 72 | 29 | 0.0 | 4.0 | 0.00 | 0.00 | 0.00 | 44 | 1029.0 |
| 20260506024813 | 72 | 334 | 3.0 | 8.0 | 0.00 | 0.00 | 0.00 | 44 | 1028.9 |
| 20260506024310 | 72 | 335 | 5.0 | 7.0 | 0.00 | 0.00 | 0.00 | 44 | 1028.8 |
| 20260506023806 | 72 | 355 | 5.0 | 7.0 | 0.00 | 0.00 | 0.00 | 44 | 1029.1 |
| 20260506023303 | 72 | 350 | 4.0 | 8.0 | 0.00 | 0.00 | 0.00 | 43 | 1029.0 |
| 20260506022800 | 73 | 338 | 4.0 | 8.0 | 0.00 | 0.00 | 0.00 | 43 | 1029.0 |
| 20260506022258 | 73 | 359 | 9.0 | 11.0 | 0.00 | 0.00 | 0.00 | 43 | 1029.5 |
| 20260506021755 | 72 | 43 | 4.0 | 14.0 | 0.00 | 0.00 | 0.00 | 43 | 1029.1 |
| 20260506021252 | 72 | 3 | 5.0 | 9.0 | 0.00 | 0.00 | 0.00 | 43 | 1029.0 |
| 20260506020749 | 72 | 338 | 5.0 | 9.0 | 0.00 | 0.00 | 0.00 | 44 | 1028.9 |
| 20260506020247 | 72 | 0 | 4.0 | 8.0 | 0.00 | 0.00 | 0.00 | 43 | 1029.2 |
| 20260506015744 | 72 | 359 | 5.0 | 9.0 | 0.00 | 0.00 | 0.00 | 43 | 1028.8 |
| 20260506015241 | 73 | 354 | 7.0 | 12.0 | 0.00 | 0.00 | 0.00 | 42 | 1028.9 |
| 20260506014738 | 73 | 345 | 10.0 | 20.0 | 0.00 | 0.00 | 0.00 | 42 | 1028.6 |
| 20260506014235 | 73 | 355 | 12.0 | 18.0 | 0.00 | 0.00 | 0.00 | 42 | 1028.5 |
| 20260506013732 | 73 | 327 | 4.0 | 14.0 | 0.00 | 0.00 | 0.00 | 41 | 1028.5 |
| 20260506013229 | 73 | 355 | 7.0 | 15.0 | 0.00 | 0.00 | 0.00 | 42 | 1028.3 |
| 20260506012725 | 73 | 353 | 7.0 | 13.0 | 0.00 | 0.00 | 0.00 | 41 | 1028.0 |
| 20260506012222 | 73 | 346 | 8.0 | 13.0 | 0.00 | 0.00 | 0.00 | 42 | 1028.4 |
| 20260506011720 | 73 | 359 | 6.0 | 11.0 | 0.00 | 0.00 | 0.00 | 42 | 1028.2 |
| 20260506011216 | 73 | 343 | 5.0 | 16.0 | 0.00 | 0.00 | 0.00 | 41 | 1028.3 |
| 20260506010714 | 73 | 359 | 5.0 | 11.0 | 0.00 | 0.00 | 0.00 | 41 | 1028.6 |
| 20260506010211 | 72 | 350 | 4.0 | 10.0 | 0.00 | 0.00 | 0.00 | 42 | 1028.6 |
| 20260506005709 | 72 | 359 | 5.0 | 8.0 | 0.00 | 0.00 | 0.00 | 42 | 1028.8 |
| 20260506005205 | 72 | 342 | 3.0 | 5.0 | 0.00 | 0.00 | 0.00 | 42 | 1028.9 |
| 20260506004701 | 73 | 0 | 3.0 | 7.0 | 0.00 | 0.00 | 0.00 | 41 | 1029.0 |
| 20260506004159 | 73 | 10 | 3.0 | 5.0 | 0.00 | 0.00 | 0.00 | 42 | 1029.0 |
| 20260506003654 | 73 | 323 | 2.0 | 6.0 | 0.00 | 0.00 | 0.00 | 43 | 1028.9 |
| 20260506003151 | 73 | 12 | 3.0 | 6.0 | 0.00 | 0.00 | 0.00 | 44 | 1028.9 |
| 20260506002647 | 72 | 345 | 4.0 | 4.0 | 0.00 | 0.00 | 0.00 | 46 | 1028.8 |
| 20260506002143 | 73 | 356 | 2.0 | 3.0 | 0.00 | 0.00 | 0.00 | 46 | 1029.0 |
| 20260506001639 | 73 | 0 | 0.0 | 6.0 | 0.00 | 0.00 | 0.00 | 44 | 1029.0 |
| 20260506001137 | 74 | 0 | 2.0 | 5.0 | 0.00 | 0.00 | 0.00 | 45 | 1029.0 |
| 20260506000634 | 74 | 19 | 2.0 | 2.0 | 0.00 | 0.00 | 0.00 | 45 | 1028.7 |
| 20260506000131 | 74 | 60 | 3.0 | 4.0 | 0.00 | 0.00 | 0.00 | 43 | 1029.0 |
| 20260505235629 | 74 | 0 | 4.0 | 5.0 | 0.00 | 0.00 | 0.00 | 43 | 1028.8 |
| 20260505235126 | 75 | 6 | 3.0 | 7.0 | 0.00 | 0.00 | 0.00 | 43 | 1028.5 |
| 20260505234623 | 75 | 339 | 2.0 | 6.0 | 0.00 | 0.00 | 0.00 | 42 | 1028.5 |
| 20260505234119 | 75 | 325 | 1.0 | 4.0 | 0.00 | 0.00 | 0.00 | 43 | 1028.6 |
| 20260505233617 | 76 | 1 | 0.0 | 10.0 | 0.00 | 0.00 | 0.00 | 41 | 1028.4 |
| 20260505233114 | 76 | 33 | 9.0 | 9.0 | 0.00 | 0.00 | 0.00 | 42 | 1028.3 |
| 20260505232612 | 76 | 338 | 6.0 | 8.0 | 0.00 | 0.00 | 0.00 | 42 | 1028.2 |
| 20260505232109 | 75 | 4 | 7.0 | 9.0 | 0.00 | 0.00 | 0.00 | 44 | 1028.5 |
| 20260505231606 | 76 | 32 | 3.0 | 4.0 | 0.00 | 0.00 | 0.00 | 44 | 1028.6 |
| 20260505231104 | 76 | 23 | 3.0 | 5.0 | 0.00 | 0.00 | 0.00 | 44 | 1028.6 |
| 20260505230556 | 77 | 357 | 3.0 | 4.0 | 0.00 | 0.00 | 0.00 | 43 | 1028.5 |
| 20260505230052 | 75 | 20 | 3.0 | 4.0 | 0.00 | 0.00 | 0.00 | 45 | 1028.7 |
| 20260505225550 | 76 | 71 | 2.0 | 4.0 | 0.00 | 0.00 | 0.00 | 45 | 1028.7 |
| 20260505225045 | 76 | 7 | 3.0 | 4.0 | 0.00 | 0.00 | 0.00 | 45 | 1028.8 |
| 20260505224542 | 76 | 9 | 4.0 | 4.0 | 0.00 | 0.00 | 0.00 | 45 | 1028.8 |
| 20260505224040 | 76 | 9 | 3.0 | 6.0 | 0.00 | 0.00 | 0.00 | 45 | 1029.0 |
| 20260505223537 | 76 | 28 | 2.0 | 3.0 | 0.00 | 0.00 | 0.00 | 45 | 1029.1 |
| 20260505223033 | 76 | 14 | 2.0 | 4.0 | 0.00 | 0.00 | 0.00 | 44 | 1028.9 |
| 20260505222529 | 76 | 15 | 2.0 | 3.0 | 0.00 | 0.00 | 0.00 | 43 | 1029.2 |
| 20260505222025 | 77 | 0 | 1.0 | 3.0 | 0.00 | 0.00 | 0.00 | 42 | 1028.8 |
| 20260505221523 | 77 | 75 | 0.0 | 3.0 | 0.00 | 0.00 | 0.00 | 41 | 1028.9 |
| 20260505221019 | 76 | 11 | 3.0 | 3.0 | 0.00 | 0.00 | 0.00 | 42 | 1028.7 |
| 20260505220517 | 76 | 14 | 0.0 | 3.0 | 0.00 | 0.00 | 0.00 | 41 | 1029.0 |
| 20260505220015 | 76 | 23 | 3.0 | 5.0 | 0.00 | 0.00 | 0.00 | 40 | 1028.8 |
| 20260505215513 | 77 | 28 | 2.0 | 3.0 | 0.00 | 0.00 | 0.00 | 40 | 1029.0 |
| 20260505215010 | 77 | 30 | 4.0 | 4.0 | 0.00 | 0.00 | 0.00 | 39 | 1029.0 |
| 20260505214508 | 76 | 33 | 6.0 | 6.0 | 0.00 | 0.00 | 0.00 | 38 | 1029.1 |
| 20260505214004 | 77 | 40 | 5.0 | 7.0 | 0.00 | 0.00 | 0.00 | 38 | 1029.0 |
| 20260505213502 | 77 | 66 | 0.0 | 6.0 | 0.00 | 0.00 | 0.00 | 37 | 1028.9 |
| 20260505212958 | 77 | 40 | 5.0 | 9.0 | 0.00 | 0.00 | 0.00 | 39 | 1029.1 |
| 20260505212455 | 77 | 2 | 4.0 | 7.0 | 0.00 | 0.00 | 0.00 | 39 | 1028.8 |
| 20260505211952 | 77 | 36 | 4.0 | 7.0 | 0.00 | 0.00 | 0.00 | 38 | 1029.0 |
| 20260505211449 | 78 | 14 | 3.0 | 8.0 | 0.00 | 0.00 | 0.00 | 38 | 1029.1 |
| 20260505210945 | 78 | 348 | 0.0 | 4.0 | 0.00 | 0.00 | 0.00 | 38 | 1029.3 |
| 20260505210442 | 78 | 158 | 3.0 | 6.0 | 0.00 | 0.00 | 0.00 | 37 | 1029.0 |
| 20260505205939 | 78 | 133 | 0.0 | 5.0 | 0.00 | 0.00 | 0.00 | 38 | 1029.1 |
| 20260505205437 | 78 | 7 | 1.0 | 7.0 | 0.00 | 0.00 | 0.00 | 37 | 1029.1 |
| 20260505204933 | 82 | 90 | 0.0 | 3.0 | 0.00 | 0.00 | 0.00 | 37 | 1029.2 |
| 20260505204432 | 81 | 7 | 1.0 | 4.0 | 0.00 | 0.00 | 0.00 | 35 | 1029.4 |
| 20260505203929 | 81 | 18 | 3.0 | 4.0 | 0.00 | 0.00 | 0.00 | 36 | 1029.5 |
| 20260505203425 | 80 | 180 | 1.0 | 6.0 | 0.00 | 0.00 | 0.00 | 38 | 1029.4 |
| 20260505202921 | 80 | 66 | 2.0 | 8.0 | 0.00 | 0.00 | 0.00 | 37 | 1029.7 |
| 20260505202418 | 78 | 241 | 5.0 | 7.0 | 0.00 | 0.00 | 0.00 | 38 | 1029.8 |
| 20260505201914 | 79 | 36 | 2.0 | 7.0 | 0.00 | 0.00 | 0.00 | 40 | 1029.7 |
| 20260505201411 | 79 | 18 | 1.0 | 2.0 | 0.00 | 0.00 | 0.00 | 42 | 1029.8 |
| 20260505200910 | 78 | 21 | 2.0 | 3.0 | 0.00 | 0.00 | 0.00 | 42 | 1029.6 |
| 20260505200406 | 78 | 5 | 0.0 | 3.0 | 0.00 | 0.00 | 0.00 | 41 | 1030.1 |
| 20260505195902 | 77 | 8 | 0.0 | 3.0 | 0.00 | 0.00 | 0.00 | 43 | 1029.8 |
| 20260505195400 | 75 | 12 | 1.0 | 3.0 | 0.00 | 0.00 | 0.00 | 42 | 1030.1 |
| 20260505194857 | 75 | 180 | 0.0 | 3.0 | 0.00 | 0.00 | 0.00 | 42 | 1030.2 |
| 20260505194355 | 75 | 111 | 0.0 | 3.0 | 0.00 | 0.00 | 0.00 | 45 | 1030.5 |
| 20260505193854 | 75 | 315 | 2.0 | 6.0 | 0.00 | 0.00 | 0.00 | 42 | 1030.3 |
| 20260505193353 | 75 | 221 | 2.0 | 8.0 | 0.00 | 0.00 | 0.00 | 42 | 1030.3 |
| 20260505192850 | 76 | 154 | 0.0 | 5.0 | 0.00 | 0.00 | 0.00 | 45 | 1030.4 |
| 20260505192348 | 76 | 157 | 2.0 | 3.0 | 0.00 | 0.00 | 0.00 | 51 | 1030.4 |
| 20260505191845 | 77 | 90 | 0.0 | 5.0 | 0.00 | 0.00 | 0.00 | 47 | 1030.5 |
| 20260505191344 | 76 | 270 | 0.0 | 2.0 | 0.00 | 0.00 | 0.00 | 48 | 1030.5 |
| 20260505190840 | 75 | 294 | 0.0 | 3.0 | 0.00 | 0.00 | 0.00 | 48 | 1030.7 |
| 20260505190336 | 75 | 41 | 2.0 | 13.0 | 0.00 | 0.00 | 0.00 | 46 | 1030.9 |
| 20260505185831 | 76 | 12 | 0.0 | 7.0 | 0.00 | 0.00 | 0.00 | 45 | 1030.9 |
| 20260505185328 | 76 | 8 | 3.0 | 6.0 | 0.00 | 0.00 | 0.00 | 45 | 1031.0 |
| 20260505184824 | 75 | 206 | 1.0 | 5.0 | 0.00 | 0.00 | 0.00 | 47 | 1031.1 |
| 20260505184321 | 75 | 14 | 9.0 | 9.0 | 0.00 | 0.00 | 0.00 | 47 | 1031.3 |
| 20260505183818 | 75 | 35 | 3.0 | 9.0 | 0.00 | 0.00 | 0.00 | 48 | 1031.6 |
| 20260505183315 | 75 | 348 | 2.0 | 9.0 | 0.00 | 0.00 | 0.00 | 47 | 1031.5 |
| 20260505182812 | 75 | 30 | 2.0 | 5.0 | 0.00 | 0.00 | 0.00 | 47 | 1031.4 |
| 20260505182309 | 75 | 115 | 4.0 | 5.0 | 0.00 | 0.00 | 0.00 | 46 | 1031.5 |
| 20260505181805 | 74 | 141 | 5.0 | 12.0 | 0.00 | 0.00 | 0.00 | 44 | 1031.5 |
| 20260505181303 | 75 | 45 | 11.0 | 11.0 | 0.00 | 0.00 | 0.00 | 44 | 1031.7 |
| 20260505180759 | 75 | 191 | 2.0 | 4.0 | 0.00 | 0.00 | 0.00 | 45 | 1031.5 |
| 20260505180256 | 75 | 95 | 2.0 | 5.0 | 0.00 | 0.00 | 0.00 | 46 | 1031.6 |
| 20260505175752 | 75 | 188 | 0.0 | 6.0 | 0.00 | 0.00 | 0.00 | 45 | 1031.8 |
| 20260505175249 | 75 | 115 | 0.0 | 5.0 | 0.00 | 0.00 | 0.00 | 45 | 1031.9 |
| 20260505174745 | 75 | 262 | 0.0 | 4.0 | 0.00 | 0.00 | 0.00 | 47 | 1031.7 |
| 20260505174243 | 75 | 103 | 2.0 | 5.0 | 0.00 | 0.00 | 0.00 | 44 | 1032.1 |
| 20260505173738 | 74 | 161 | 0.0 | 5.0 | 0.00 | 0.00 | 0.00 | 48 | 1031.6 |
| 20260505173235 | 75 | 170 | 2.0 | 5.0 | 0.00 | 0.00 | 0.00 | 45 | 1031.8 |
| 20260505172732 | 75 | 29 | 3.0 | 5.0 | 0.00 | 0.00 | 0.00 | 46 | 1031.9 |
| 20260505172229 | 74 | 6 | 4.0 | 10.0 | 0.00 | 0.00 | 0.00 | 46 | 1032.2 |
| 20260505171729 | 74 | 60 | 1.0 | 3.0 | 0.00 | 0.00 | 0.00 | 46 | 1032.1 |
| 20260505171227 | 74 | 346 | 2.0 | 3.0 | 0.00 | 0.00 | 0.00 | 48 | 1032.4 |
| 20260505170723 | 74 | 142 | 3.0 | 6.0 | 0.00 | 0.00 | 0.00 | 49 | 1032.4 |
| 20260505170220 | 74 | 127 | 5.0 | 5.0 | 0.00 | 0.00 | 0.00 | 45 | 1032.6 |
| 20260505165715 | 74 | 180 | 2.0 | 5.0 | 0.00 | 0.00 | 0.00 | 46 | 1032.7 |
| 20260505165212 | 73 | 123 | 0.0 | 5.0 | 0.00 | 0.00 | 0.00 | 50 | 1032.6 |
| 20260505164707 | 73 | 102 | 5.0 | 7.0 | 0.00 | 0.00 | 0.00 | 47 | 1032.8 |
| 20260505164205 | 73 | 16 | 5.0 | 7.0 | 0.00 | 0.00 | 0.00 | 46 | 1032.9 |
| 20260505163703 | 73 | 16 | 5.0 | 9.0 | 0.00 | 0.00 | 0.00 | 45 | 1033.0 |
| 20260505163201 | 73 | 135 | 3.0 | 5.0 | 0.00 | 0.00 | 0.00 | 46 | 1033.1 |
| 20260505162658 | 73 | 6 | 4.0 | 7.0 | 0.00 | 0.00 | 0.00 | 49 | 1033.0 |
| 20260505162155 | 73 | 23 | 5.0 | 9.0 | 0.00 | 0.00 | 0.00 | 48 | 1032.9 |
| 20260505161652 | 73 | 0 | 4.0 | 5.0 | 0.00 | 0.00 | 0.00 | 48 | 1032.9 |
| 20260505161149 | 72 | 345 | 0.0 | 1.0 | 0.00 | 0.00 | 0.00 | 51 | 1032.8 |
| 20260505160647 | 73 | 23 | 5.0 | 8.0 | 0.00 | 0.00 | 0.00 | 49 | 1032.9 |
| 20260505160144 | 72 | 55 | 9.0 | 11.0 | 0.00 | 0.00 | 0.00 | 46 | 1033.1 |
| 20260505153123 | 71 | 60 | 1.0 | 4.0 | 0.00 | 0.00 | 0.00 | 48 | 1032.8 |
| 20260505152620 | 71 | 45 | 5.0 | 9.0 | 0.00 | 0.00 | 0.00 | 48 | 1032.9 |
| 20260505152116 | 71 | 204 | 0.0 | 12.0 | 0.00 | 0.00 | 0.00 | 48 | 1032.8 |
| 20260505151611 | 71 | 24 | 5.0 | 8.0 | 0.00 | 0.00 | 0.00 | 50 | 1032.7 |
| 20260505151109 | 71 | 339 | 3.0 | 5.0 | 0.00 | 0.00 | 0.00 | 49 | 1032.9 |
| 20260505150605 | 71 | 0 | 0.0 | 5.0 | 0.00 | 0.00 | 0.00 | 50 | 1032.9 |
| 20260505140530 | 64 | 157 | 0.0 | 0.0 | 0.00 | 0.00 | 0.00 | 71 | 1033.3 |
| 20260505124944 | 60 | 175 | 0.0 | 1.0 | 0.00 | 0.00 | 0.00 | 67 | 1032.5 |
| 20260505124440 | 60 | 180 | 0.0 | 2.0 | 0.00 | 0.00 | 0.00 | 69 | 1032.6 |
| 20260505123937 | 62 | 0 | 0.0 | 3.0 | 0.00 | 0.00 | 0.00 | 64 | 1032.6 |
| 20260505123433 | 63 | 15 | 2.0 | 3.0 | 0.00 | 0.00 | 0.00 | 59 | 1032.4 |
| 20260505122929 | 60 | 56 | 2.0 | 3.0 | 0.00 | 0.00 | 0.00 | 65 | 1032.6 |
| 20260505122427 | 61 | 165 | 1.0 | 3.0 | 0.00 | 0.00 | 0.00 | 66 | 1032.4 |
| 20260505121923 | 63 | 15 | 2.0 | 3.0 | 0.00 | 0.00 | 0.00 | 60 | 1032.6 |
| 20260505121421 | 63 | 16 | 3.0 | 5.0 | 0.00 | 0.00 | 0.00 | 59 | 1032.4 |
| 20260505120916 | 62 | 9 | 0.0 | 3.0 | 0.00 | 0.00 | 0.00 | 61 | 1032.6 |
| 20260505120413 | 62 | 174 | 0.0 | 2.0 | 0.00 | 0.00 | 0.00 | 62 | 1032.5 |
| 20260505115912 | 62 | 334 | 0.0 | 3.0 | 0.00 | 0.00 | 0.00 | 58 | 1032.3 |
| 20260505115409 | 60 | 90 | 0.0 | 2.0 | 0.00 | 0.00 | 0.00 | 61 | 1032.3 |
| 20260505114907 | 63 | 165 | 1.0 | 3.0 | 0.00 | 0.00 | 0.00 | 60 | 1032.3 |
| 20260505114403 | 64 | 342 | 1.0 | 3.0 | 0.00 | 0.00 | 0.00 | 54 | 1032.4 |
| 20260505113859 | 63 | 15 | 2.0 | 3.0 | 0.00 | 0.00 | 0.00 | 55 | 1032.2 |
| 20260505113356 | 63 | 357 | 2.0 | 2.0 | 0.00 | 0.00 | 0.00 | 55 | 1032.1 |
| 20260505112851 | 63 | 353 | 2.0 | 4.0 | 0.00 | 0.00 | 0.00 | 54 | 1032.2 |
| 20260505112350 | 63 | 33 | 0.0 | 3.0 | 0.00 | 0.00 | 0.00 | 53 | 1031.7 |
| 20260505111845 | 63 | 0 | 0.0 | 2.0 | 0.00 | 0.00 | 0.00 | 54 | 1031.9 |
| 20260505111340 | 63 | 40 | 3.0 | 5.0 | 0.00 | 0.00 | 0.00 | 54 | 1031.8 |
| 20260505110836 | 63 | 29 | 1.0 | 3.0 | 0.00 | 0.00 | 0.00 | 54 | 1031.5 |
| 20260505110334 | 63 | 25 | 5.0 | 5.0 | 0.00 | 0.00 | 0.00 | 54 | 1031.6 |
| 20260505101809 | 63 | 14 | 2.0 | 2.0 | 0.00 | 0.00 | 0.00 | 52 | 1031.7 |
| 20260505101305 | 64 | 349 | 0.0 | 2.0 | 0.00 | 0.00 | 0.00 | 51 | 1031.7 |
| 20260505100801 | 64 | 349 | 2.0 | 3.0 | 0.00 | 0.00 | 0.00 | 50 | 1031.7 |
| 20260505100257 | 64 | 0 | 2.0 | 3.0 | 0.00 | 0.00 | 0.00 | 49 | 1031.6 |
| 20260505095753 | 65 | 20 | 3.0 | 4.0 | 0.00 | 0.00 | 0.00 | 49 | 1031.7 |
| 20260505095251 | 65 | 353 | 1.0 | 5.0 | 0.00 | 0.00 | 0.00 | 49 | 1031.7 |
| 20260505094746 | 65 | 0 | 3.0 | 3.0 | 0.00 | 0.00 | 0.00 | 48 | 1031.6 |
| 20260505094243 | 65 | 18 | 3.0 | 7.0 | 0.00 | 0.00 | 0.00 | 48 | 1031.8 |
| 20260505093739 | 65 | 337 | 2.0 | 7.0 | 0.00 | 0.00 | 0.00 | 48 | 1031.7 |
| 20260505093237 | 65 | 30 | 2.0 | 6.0 | 0.00 | 0.00 | 0.00 | 48 | 1031.6 |
| 20260505092733 | 65 | 357 | 7.0 | 7.0 | 0.00 | 0.00 | 0.00 | 48 | 1031.6 |
| 20260505092232 | 66 | 332 | 2.0 | 4.0 | 0.00 | 0.00 | 0.00 | 48 | 1031.9 |
| 20260505091729 | 65 | 11 | 4.0 | 7.0 | 0.00 | 0.00 | 0.00 | 48 | 1031.6 |
| 20260505091228 | 65 | 358 | 4.0 | 7.0 | 0.00 | 0.00 | 0.00 | 48 | 1031.4 |
| 20260505090725 | 65 | 37 | 4.0 | 6.0 | 0.00 | 0.00 | 0.00 | 49 | 1031.3 |
| 20260505090223 | 66 | 346 | 3.0 | 14.0 | 0.00 | 0.00 | 0.00 | 48 | 1031.6 |
| 20260505085720 | 65 | 353 | 5.0 | 7.0 | 0.00 | 0.00 | 0.00 | 49 | 1031.4 |
| 20260505085218 | 66 | 336 | 4.0 | 7.0 | 0.00 | 0.00 | 0.00 | 49 | 1031.4 |
| 20260505084715 | 66 | 345 | 5.0 | 6.0 | 0.00 | 0.00 | 0.00 | 49 | 1031.5 |
| 20260505084214 | 66 | 0 | 12.0 | 12.0 | 0.00 | 0.00 | 0.00 | 49 | 1031.2 |
| 20260505083710 | 66 | 359 | 4.0 | 14.0 | 0.00 | 0.00 | 0.00 | 48 | 1031.4 |
| 20260505083207 | 66 | 345 | 8.0 | 8.0 | 0.00 | 0.00 | 0.00 | 49 | 1031.2 |
| 20260505082703 | 66 | 2 | 10.0 | 11.0 | 0.00 | 0.00 | 0.00 | 49 | 1031.3 |
| 20260505082201 | 66 | 11 | 5.0 | 10.0 | 0.00 | 0.00 | 0.00 | 50 | 1031.3 |
| 20260505081656 | 65 | 346 | 6.0 | 9.0 | 0.00 | 0.00 | 0.00 | 50 | 1031.3 |
| 20260505081154 | 64 | 9 | 5.0 | 7.0 | 0.00 | 0.00 | 0.00 | 51 | 1031.0 |
| 20260505080651 | 64 | 359 | 5.0 | 5.0 | 0.00 | 0.00 | 0.00 | 51 | 1031.2 |
| 20260505080146 | 65 | 6 | 4.0 | 6.0 | 0.00 | 0.00 | 0.00 | 52 | 1031.2 |
| 20260505075642 | 64 | 2 | 4.0 | 5.0 | 0.00 | 0.00 | 0.00 | 52 | 1031.3 |
| 20260505075139 | 64 | 14 | 4.0 | 5.0 | 0.00 | 0.00 | 0.00 | 53 | 1031.2 |
| 20260505074636 | 64 | 5 | 5.0 | 5.0 | 0.00 | 0.00 | 0.00 | 54 | 1031.2 |
| 20260505074133 | 64 | 17 | 5.0 | 6.0 | 0.00 | 0.00 | 0.00 | 53 | 1031.0 |
| 20260505073631 | 64 | 18 | 3.0 | 6.0 | 0.00 | 0.00 | 0.00 | 53 | 1031.4 |
| 20260505073129 | 64 | 42 | 3.0 | 6.0 | 0.00 | 0.00 | 0.00 | 54 | 1031.2 |
| 20260505072624 | 64 | 42 | 3.0 | 6.0 | 0.00 | 0.00 | 0.00 | 54 | 1031.2 |
| 20260505072121 | 64 | 48 | 6.0 | 7.0 | 0.00 | 0.00 | 0.00 | 54 | 1031.3 |
| 20260505071617 | 64 | 0 | 2.0 | 4.0 | 0.00 | 0.00 | 0.00 | 55 | 1031.5 |
| 20260505071115 | 64 | 0 | 0.0 | 3.0 | 0.00 | 0.00 | 0.00 | 56 | 1031.4 |
| 20260505070612 | 64 | 355 | 2.0 | 4.0 | 0.00 | 0.00 | 0.00 | 55 | 1031.4 |
| 20260505070108 | 64 | 24 | 2.0 | 6.0 | 0.00 | 0.00 | 0.00 | 55 | 1031.4 |
| 20260505065604 | 64 | 340 | 1.0 | 3.0 | 0.00 | 0.00 | 0.00 | 56 | 1031.4 |
| 20260505065101 | 64 | 110 | 2.0 | 5.0 | 0.00 | 0.00 | 0.00 | 54 | 1031.2 |
| 20260505064558 | 65 | 345 | 2.0 | 6.0 | 0.00 | 0.00 | 0.00 | 53 | 1031.3 |
| 20260505064056 | 64 | 123 | 5.0 | 5.0 | 0.00 | 0.00 | 0.00 | 56 | 1031.3 |
| 20260505063553 | 64 | 180 | 0.0 | 4.0 | 0.00 | 0.00 | 0.00 | 55 | 1031.3 |
| 20260505063049 | 63 | 152 | 0.0 | 3.0 | 0.00 | 0.00 | 0.00 | 59 | 1031.4 |
| 20260505062546 | 65 | 168 | 2.0 | 3.0 | 0.00 | 0.00 | 0.00 | 57 | 1031.4 |
| 20260505062043 | 67 | 16 | 3.0 | 5.0 | 0.00 | 0.00 | 0.00 | 50 | 1031.4 |
| 20260505061540 | 66 | 3 | 5.0 | 7.0 | 0.00 | 0.00 | 0.00 | 51 | 1031.1 |
| 20260505061038 | 67 | 327 | 3.0 | 9.0 | 0.00 | 0.00 | 0.00 | 51 | 1030.9 |
| 20260505060535 | 66 | 353 | 5.0 | 6.0 | 0.00 | 0.00 | 0.00 | 51 | 1031.0 |
| 20260505060032 | 67 | 343 | 4.0 | 6.0 | 0.00 | 0.00 | 0.00 | 51 | 1031.0 |
| 20260505055527 | 67 | 334 | 3.0 | 6.0 | 0.00 | 0.00 | 0.00 | 51 | 1031.0 |
| 20260505055024 | 67 | 354 | 6.0 | 8.0 | 0.00 | 0.00 | 0.00 | 51 | 1030.9 |
| 20260505054521 | 67 | 338 | 4.0 | 9.0 | 0.00 | 0.00 | 0.00 | 51 | 1031.0 |
| 20260505054020 | 68 | 338 | 4.0 | 9.0 | 0.00 | 0.00 | 0.00 | 51 | 1031.1 |
| 20260505053517 | 67 | 349 | 9.0 | 10.0 | 0.00 | 0.00 | 0.00 | 50 | 1031.0 |
| 20260505053013 | 68 | 344 | 5.0 | 12.0 | 0.00 | 0.00 | 0.00 | 50 | 1031.0 |
| 20260505052510 | 68 | 6 | 6.0 | 9.0 | 0.00 | 0.00 | 0.00 | 50 | 1031.1 |
| 20260505052008 | 68 | 348 | 6.0 | 8.0 | 0.00 | 0.00 | 0.00 | 50 | 1030.9 |
| 20260505051504 | 68 | 349 | 4.0 | 8.0 | 0.00 | 0.00 | 0.00 | 50 | 1030.8 |
| 20260505051003 | 68 | 344 | 4.0 | 8.0 | 0.00 | 0.00 | 0.00 | 50 | 1030.9 |
| 20260505050500 | 68 | 347 | 5.0 | 11.0 | 0.00 | 0.00 | 0.00 | 49 | 1030.9 |